Location: Unspecified
(35.7250°N, 0.0000°E)
Time: 05:40:44
(UTC+00:00)

Courier 1B Rocket - Pass Details

Date: 22 August 2020
Orbit: 920 x 1202 km, 28.2° (Epoch: 21 September)

Event Time Altitude Azimuth Distance (km) Brightness Sun altitude
Rises 19:18:37 0° 204° (SSW) 3,906 8.2 -8.2°
Reaches altitude 10° 19:23:16 10° 178° (S) 2,881 7.2 -9.1°
Maximum altitude 19:26:11 13° 153° (SSE) 2,624 6.8 -9.7°
Enters shadow 19:28:43 11° 130° (SE) 2,754 6.8 -10.1°
